DW8004 Weather Reports


time (UTC)temp
C
wind
direction
speed
KPH
gust
KPH
rain 1hr
cm
rain 24hr
cm
rain mn
cm
humidity
%
barometer
mb
20260901023026 17 233 0.0 0.0 0.00 0.00 0.00 94 1017.0
20260901021508 17 233 0.0 0.0 0.00 0.00 0.00 94 1016.9
20260901020112 17 233 0.0 0.0 0.00 0.00 0.00 93 1016.9
20260901014502 17 233 0.0 0.0 0.00 0.00 0.00 93 1016.8
20260901013101 17 233 0.0 0.0 0.00 0.00 0.00 93 1016.9
20260901011540 17 233 0.0 0.0 0.00 0.00 0.00 93 1016.9
20260901010032 17 233 0.0 0.0 0.00 0.00 0.00 93 1016.9
20260901004506 17 233 0.0 0.0 0.00 0.00 0.00 92 1016.9
20260901003006 17 233 0.0 0.0 0.00 0.00 0.00 92 1016.9
20260901001630 17 233 0.0 0.0 0.00 0.00 0.00 91 1016.9
20260901000111 17 233 0.0 0.0 0.00 0.00 0.00 90 1016.9
20260831234557 18 233 0.0 0.0 0.00 0.00 0.00 90 1016.6
20260831233056 18 233 0.0 0.0 0.00 0.00 0.00 89 1016.8
20260831231542 18 233 0.0 0.0 0.00 0.00 0.00 89 1017.0
20260831230022 18 233 0.0 0.0 0.00 0.00 0.00 88 1017.2
20260831224602 18 233 0.0 0.0 0.00 0.00 0.00 87 1017.3
20260831223048 18 233 0.0 0.0 0.00 0.00 0.00 88 1017.3
20260831221532 18 233 0.0 0.0 0.00 0.00 0.00 87 1017.4
20260831220118 19 233 0.0 0.0 0.00 0.00 0.00 85 1017.2
20260831214600 20 233 0.0 0.0 0.00 0.00 0.00 83 1017.1
20260831213043 20 228 0.0 0.0 0.00 0.00 0.00 82 1017.0
20260831211603 20 243 0.0 0.0 0.00 0.00 0.00 84 1017.0
20260831210049 20 216 0.0 0.0 0.00 0.00 0.00 82 1017.0
20260831204634 20 228 0.0 0.0 0.00 0.00 0.00 80 1017.1
20260831203012 20 235 0.0 0.0 0.00 0.00 0.00 79 1017.0
20260831201537 21 225 0.0 0.0 0.00 0.00 0.00 74 1017.1
20260831200027 21 241 0.0 0.0 0.00 0.00 0.00 72 1016.9
20260831194519 21 246 0.0 0.0 0.00 0.00 0.00 72 1017.3
20260831193041 22 232 0.0 0.0 0.00 0.00 0.00 69 1017.5
20260831191548 22 245 0.0 0.0 0.00 0.00 0.00 64 1017.7
20260831190110 22 225 0.0 0.0 0.00 0.00 0.00 65 1017.6
20260831184631 21 224 0.0 0.0 0.00 0.00 0.00 67 1017.9
20260831183043 21 252 0.0 0.0 0.00 0.00 0.00 71 1018.2
20260831181521 22 252 0.0 0.0 0.00 0.00 0.00 64 1018.2
20260831180112 22 290 0.0 0.0 0.00 0.00 0.00 66 1018.1
20260831174612 22 138 0.0 0.0 0.00 0.00 0.00 65 1018.1
20260831173103 21 119 0.0 0.0 0.00 0.00 0.00 67 1018.4
20260831171538 21 227 0.0 0.0 0.00 0.00 0.00 65 1018.5
20260831170013 21 163 0.0 0.0 0.00 0.00 0.00 65 1018.7
20260831164532 21 103 0.0 0.0 0.00 0.00 0.00 64 1018.9
20260831163031 21 105 0.0 0.0 0.00 0.00 0.00 65 1019.0
20260831161511 21 213 0.0 0.0 0.00 0.00 0.00 65 1019.2
20260831160029 21 81 0.0 0.0 0.00 0.00 0.00 64 1019.4
20260831154545 21 76 0.0 0.0 0.00 0.00 0.00 65 1019.4
20260831153044 21 94 0.0 0.0 0.00 0.00 0.00 63 1019.5
20260831151555 21 136 0.0 0.0 0.00 0.00 0.00 66 1019.4
20260831150028 21 101 0.0 0.0 0.00 0.00 0.00 66 1019.3
20260831144517 21 101 0.0 0.0 0.00 0.00 0.00 70 1019.6
20260831143004 20 172 0.0 0.0 0.00 0.00 0.00 68 1019.6
20260831141601 20 142 0.0 0.0 0.00 0.00 0.00 72 1019.6
20260831140052 20 144 0.0 0.0 0.00 0.00 0.00 75 1019.7
20260831134558 19 111 0.0 0.0 0.00 0.00 0.00 76 1019.6
20260831133100 19 151 0.0 0.0 0.00 0.00 0.00 78 1019.7
20260831131543 18 150 0.0 0.0 0.00 0.00 0.00 81 1019.7
20260831130047 17 150 0.0 0.0 0.00 0.00 0.00 86 1019.8
20260831124534 17 150 0.0 0.0 0.00 0.00 0.00 87 1019.9
20260831123044 17 150 0.0 0.0 0.00 0.00 0.00 87 1019.9
20260831121537 16 150 0.0 0.0 0.00 0.00 0.00 91 1019.8
20260831120050 15 150 0.0 0.0 0.00 0.00 0.00 95 1019.8
20260831114548 13 150 0.0 0.0 0.00 0.00 0.00 97 1019.7
20260831113032 11 150 0.0 0.0 0.00 0.00 0.00 97 1019.6
20260831111605 11 150 0.0 0.0 0.00 0.00 0.00 97 1019.3
20260831110038 11 150 0.0 0.0 0.00 0.00 0.00 97 1019.1
20260831104548 11 150 0.0 0.0 0.00 0.00 0.00 97 1019.0
20260831103040 11 150 0.0 0.0 0.00 0.00 0.00 96 1019.0
20260831101555 11 150 0.0 0.0 0.00 0.00 0.00 96 1018.9
20260831100053 11 150 0.0 0.0 0.00 0.00 0.00 96 1018.8
20260831094538 11 150 0.0 0.0 0.00 0.00 0.00 96 1018.8
20260831093029 11 150 0.0 0.0 0.00 0.00 0.00 96 1018.7
20260831091603 12 150 0.0 0.0 0.00 0.00 0.00 96 1018.5
20260831090131 12 150 0.0 0.0 0.00 0.00 0.00 96 1018.4
20260831084559 12 150 0.0 0.0 0.00 0.00 0.00 95 1018.5
20260831083047 12 150 0.0 0.0 0.00 0.00 0.00 95 1018.4
20260831081628 12 150 0.0 0.0 0.00 0.00 0.00 96 1018.1
20260831080031 13 150 0.0 0.0 0.00 0.00 0.00 96 1018.1
20260831074544 13 150 0.0 0.0 0.00 0.00 0.00 96 1017.9
20260831073100 13 150 0.0 0.0 0.00 0.00 0.00 96 1018.0
20260831071502 13 150 0.0 0.0 0.00 0.00 0.00 96 1018.0
20260831070107 13 150 0.0 0.0 0.00 0.00 0.00 96 1017.9
20260831064609 13 150 0.0 0.0 0.00 0.00 0.00 95 1017.8
20260831063057 13 150 0.0 0.0 0.00 0.00 0.00 95 1017.6
20260831061540 13 150 0.0 0.0 0.00 0.00 0.00 95 1017.6
20260831060041 13 150 0.0 0.0 0.00 0.00 0.00 95 1017.7
20260831054528 14 162 0.0 0.0 0.00 0.00 0.00 94 1017.6
20260831053036 14 162 0.0 0.0 0.00 0.00 0.00 94 1017.5
20260831051510 14 201 0.0 0.0 0.00 0.00 0.00 94 1017.4
20260831050036 15 201 0.0 0.0 0.00 0.00 0.00 94 1017.4
20260831044532 15 204 0.0 0.0 0.00 0.00 0.00 94 1017.2
20260831043044 15 204 0.0 0.0 0.00 0.00 0.00 93 1017.2
20260831041529 15 205 0.0 0.0 0.00 0.00 0.00 93 1017.2
20260831040038 16 242 0.0 0.0 0.00 0.00 0.00 92 1017.3
20260831034634 16 242 0.0 0.0 0.00 0.00 0.00 91 1017.3
20260831033103 16 264 0.0 0.0 0.00 0.00 0.00 91 1017.5
20260831031522 16 86 0.0 0.0 0.00 0.00 0.00 91 1017.7
20260831030132 16 84 0.0 0.0 0.00 0.00 0.00 91 1018.0
20260831024607 16 84 0.0 0.0 0.00 0.00 0.00 90 1017.9